St. James, MN

5:45 PM CDT on April 30, 2017 (GMT -0500)
Saint James Municipal

Weather History for KJYG - January, 2013

Change the Weather History Date:

Friday, January 11, 2013

  Actual Average Record
Temperature  
Mean Temperature 38 °F -  
Max Temperature 42 °F 20 °F 49 °F (1990)
Min Temperature 35 °F 0 °F -25 °F (1977)
Degree Days  
Heating Degree Days 26    
Moisture  
Dew Point 34 °F    
Average Humidity 86    
Maximum Humidity 93    
Minimum Humidity 75    
Precipitation  
Precipitation 0.00 in - - ()
Sea Level Pressure  
Sea Level Pressure 29.49 in    
Wind  
Wind Speed 9 mph (SSE)    
Max Wind Speed 18 mph    
Max Gust Speed 23 mph    
Visibility 3 miles    
Events Fog    
Averages and records for this station are not official NWS values.
T = Trace of Precipitation, MM = Missing Value Source: NWS Daily Summary

Daily Weather History Graph

Daily Weather History Graph

Search for Another Location

Airport or City:

Trip Planner

Search our weather history database for the weather conditions in past years. The results will help you decide how hot, cold, wet, or windy it might be!

Date:

Astronomy

Jan. 11, 2013 Rise Set
Actual Time 7:51 AM CST 5:01 PM CST
Civil Twilight 7:19 AM CST 5:33 PM CST
Nautical Twilight 6:43 AM CST 6:09 PM CST
Astronomical Twilight 6:08 AM CST 6:44 PM CST
Moon 7:23 AM CST (1/11) 5:22 PM CST (1/11)
Length of Visible Light 10h 14m
Length of Day
9h 10m
Waning Crescent, 0% of the Moon is Illuminated
Jan 11
Waning Crescent
Jan 11
New
Jan 18
First Quarter
Jan 26
Full
Feb 3
Last Quarter

Hourly Weather History & Observations

Time (CST) Temp. Windchill Dew Point Humidity Pressure Visibility Wind Dir Wind Speed Gust Speed Precip Events Conditions
12:15 AM 37.4 °F 30.3 °F 33.8 °F 87% 29.68 in 1.8 mi SE 10.4 mph - N/A   Overcast
12:35 AM 37.4 °F 30.8 °F 33.8 °F 87% 29.67 in 2.0 mi SE 9.2 mph - N/A   Overcast
12:55 AM 37.4 °F 29.8 °F 33.8 °F 87% 29.66 in 2.0 mi SE 11.5 mph - N/A   Overcast
1:15 AM 37.4 °F 29.8 °F 33.8 °F 87% 29.65 in 2.0 mi SE 11.5 mph - N/A   Overcast
1:35 AM 37.4 °F 30.8 °F 33.8 °F 87% 29.65 in 2.5 mi SE 9.2 mph - N/A   Overcast
1:55 AM 37.4 °F 30.8 °F 33.8 °F 87% 29.64 in 3.0 mi SE 9.2 mph - N/A   Overcast
2:15 AM 37.4 °F 30.8 °F 33.8 °F 87% 29.62 in 2.5 mi SE 9.2 mph - N/A   Overcast
2:34 AM 37.4 °F 29.8 °F 33.8 °F 87% 29.63 in 3.0 mi SE 11.5 mph - N/A   Overcast
2:55 AM 37.4 °F 29.3 °F 33.8 °F 87% 29.62 in 2.0 mi SE 12.7 mph - N/A   Overcast
3:15 AM 37.4 °F 28.9 °F 33.8 °F 87% 29.61 in 2.0 mi SE 13.8 mph - N/A   Overcast
3:34 AM 37.4 °F 29.8 °F 33.8 °F 87% 29.61 in 2.0 mi SSE 11.5 mph - N/A   Overcast
3:55 AM 37.4 °F 29.8 °F 33.8 °F 87% 29.60 in 2.0 mi SSE 11.5 mph - N/A   Overcast
4:15 AM 37.4 °F 33.8 °F 33.8 °F 87% 29.59 in 2.0 mi SSE 4.6 mph 9.2 mph N/A   Overcast
4:34 AM 37.4 °F 30.8 °F 33.8 °F 87% 29.59 in 2.5 mi SSE 9.2 mph - N/A   Overcast
4:55 AM 37.4 °F 30.3 °F 33.8 °F 87% 29.58 in 2.0 mi SSE 10.4 mph - N/A   Overcast
5:15 AM 37.4 °F 30.8 °F 33.8 °F 87% 29.56 in 2.5 mi SE 9.2 mph - N/A   Overcast
5:55 AM 37.4 °F 31.4 °F 33.8 °F 87% 29.56 in 5.0 mi South 8.1 mph - N/A   Overcast
6:15 AM 37.4 °F 33.8 °F 33.8 °F 87% 29.56 in 4.0 mi SSE 4.6 mph - N/A   Overcast
6:35 AM 37.4 °F 30.3 °F 33.8 °F 87% 29.55 in 4.0 mi SSE 10.4 mph - N/A   Overcast
6:55 AM 37.4 °F 29.8 °F 33.8 °F 87% 29.55 in 4.0 mi SSE 11.5 mph - N/A   Haze
7:15 AM 37.4 °F 29.8 °F 33.8 °F 87% 29.55 in 3.0 mi SSE 11.5 mph - N/A   Overcast
7:35 AM 37.4 °F 29.3 °F 33.8 °F 87% 29.54 in 3.0 mi SSE 12.7 mph - N/A   Overcast
7:55 AM 37.4 °F 29.8 °F 33.8 °F 87% 29.54 in 2.5 mi SSE 11.5 mph - N/A   Overcast
8:15 AM 37.4 °F 29.3 °F 33.8 °F 87% 29.54 in 1.5 mi SE 12.7 mph - N/A   Overcast
8:35 AM 37.4 °F 29.3 °F 33.8 °F 87% 29.53 in 1.8 mi SE 12.7 mph - N/A   Overcast
8:55 AM 37.4 °F 30.8 °F 33.8 °F 87% 29.52 in 1.2 mi SE 9.2 mph - N/A   Overcast
9:15 AM 37.4 °F 30.8 °F 33.8 °F 87% 29.53 in 3.0 mi SSE 9.2 mph - N/A   Overcast
9:35 AM 37.4 °F 30.3 °F 33.8 °F 87% 29.53 in 4.0 mi SSE 10.4 mph - N/A   Haze
9:55 AM 37.4 °F 30.3 °F 33.8 °F 87% 29.54 in 4.0 mi South 10.4 mph - N/A   Overcast
10:15 AM 37.4 °F 31.4 °F 33.8 °F 87% 29.54 in 4.0 mi South 8.1 mph - N/A   Haze
10:35 AM 37.4 °F 32.8 °F 33.8 °F 87% 29.53 in 1.8 mi South 5.8 mph - N/A   Overcast
10:55 AM 37.4 °F 30.8 °F 33.8 °F 87% 29.52 in 1.0 mi SSE 9.2 mph - N/A   Overcast
11:15 AM 37.4 °F 30.8 °F 33.8 °F 87% 29.50 in 0.8 mi SSE 9.2 mph - N/A   Overcast
11:35 AM 37.4 °F 30.8 °F 33.8 °F 87% 29.48 in 0.5 mi SE 9.2 mph - N/A Fog Fog
11:55 AM 37.4 °F - 33.8 °F 87% 29.48 in 0.5 mi Calm Calm - N/A Fog Fog
12:15 PM 37.4 °F - 35.6 °F 93% 29.47 in 0.2 mi Calm Calm - N/A Fog Fog
12:35 PM 37.4 °F - 35.6 °F 93% 29.46 in 0.5 mi Calm Calm - N/A Fog Fog
12:55 PM 37.4 °F - 35.6 °F 93% 29.45 in 0.2 mi Calm Calm - N/A Fog Fog
1:15 PM 37.4 °F - 33.8 °F 87% 29.45 in 0.2 mi Calm Calm - N/A Fog Fog
1:55 PM 37.4 °F - 33.8 °F 87% 29.44 in 0.8 mi Calm Calm - N/A   Overcast
2:15 PM 37.4 °F - 33.8 °F 87% 29.43 in 1.0 mi Calm Calm - N/A   Overcast
2:35 PM 37.4 °F - 35.6 °F 93% 29.42 in 0.8 mi Calm Calm - N/A   Overcast
2:55 PM 37.4 °F 32.1 °F 35.6 °F 93% 29.42 in 0.5 mi ESE 6.9 mph - N/A Fog Fog
3:15 PM 39.2 °F - 35.6 °F 87% 29.42 in 0.5 mi Calm Calm - N/A Fog Fog
3:35 PM 39.2 °F 33.6 °F 35.6 °F 87% 29.41 in 0.5 mi ESE 8.1 mph - N/A Fog Fog
3:55 PM 39.2 °F 32.5 °F 35.6 °F 87% 29.39 in 0.8 mi ESE 10.4 mph - N/A   Overcast
4:15 PM 39.2 °F 33.0 °F 35.6 °F 87% 29.41 in 0.8 mi SE 9.2 mph - N/A   Overcast
4:35 PM 39.2 °F 33.0 °F 35.6 °F 87% 29.40 in 0.8 mi SE 9.2 mph - N/A   Overcast
4:55 PM 39.2 °F 33.0 °F 35.6 °F 87% 29.40 in 1.2 mi SE 9.2 mph - N/A   Overcast
5:15 PM 39.2 °F 33.0 °F 35.6 °F 87% 29.39 in 0.8 mi SE 9.2 mph - N/A   Overcast
5:35 PM 39.2 °F 34.2 °F 35.6 °F 87% 29.38 in 0.5 mi SE 6.9 mph - N/A Fog Fog
5:55 PM 39.2 °F 35.9 °F 35.6 °F 87% 29.38 in 0.5 mi SE 4.6 mph - N/A Fog Fog
6:15 PM 39.2 °F - 35.6 °F 87% 29.39 in 0.5 mi Calm Calm - N/A Fog Fog
6:35 PM 39.2 °F - 35.6 °F 87% 29.38 in 0.8 mi Calm Calm - N/A   Overcast
6:55 PM 41.0 °F - 37.4 °F 87% 29.39 in 2.5 mi Calm Calm - N/A   Overcast
7:15 PM 41.0 °F - 37.4 °F 87% 29.38 in 3.0 mi Calm Calm - N/A   Overcast
7:35 PM 42.8 °F 37.5 °F 37.4 °F 81% 29.38 in 4.0 mi South 9.2 mph 16.1 mph N/A   Overcast
7:55 PM 42.8 °F 36.2 °F 37.4 °F 81% 29.39 in 4.0 mi South 12.7 mph - N/A   Overcast
8:15 PM 42.8 °F 36.6 °F 37.4 °F 81% 29.39 in 4.0 mi South 11.5 mph - N/A   Haze
8:35 PM 41.0 °F 36.4 °F 35.6 °F 81% 29.40 in 3.0 mi South 6.9 mph - N/A   Haze
8:55 PM 41.0 °F - 35.6 °F 81% 29.41 in 4.0 mi Calm Calm - N/A   Haze
9:15 PM 39.2 °F 33.0 °F 35.6 °F 87% 29.42 in 5.0 mi SW 9.2 mph - N/A   Overcast
9:35 PM 39.2 °F 33.0 °F 35.6 °F 87% 29.41 in 5.0 mi SW 9.2 mph - N/A   Overcast
9:55 PM 39.2 °F 32.0 °F 33.8 °F 81% 29.42 in 10.0 mi SW 11.5 mph - N/A   Overcast
10:15 PM 37.4 °F 29.3 °F 33.8 °F 87% 29.42 in 10.0 mi SW 12.7 mph - N/A   Overcast
10:35 PM 37.4 °F 29.3 °F 33.8 °F 87% 29.42 in 10.0 mi SW 12.7 mph - N/A   Scattered Clouds
10:55 PM 37.4 °F 30.3 °F 30.2 °F 75% 29.42 in 10.0 mi WSW 10.4 mph - N/A   Mostly Cloudy
11:15 PM 37.4 °F 28.2 °F 30.2 °F 75% 29.41 in 10.0 mi SW 16.1 mph - N/A   Overcast
11:35 PM 35.6 °F 25.5 °F 30.2 °F 81% 29.42 in 10.0 mi WSW 17.3 mph 23.0 mph N/A   Overcast
11:55 PM 35.6 °F 25.2 °F 28.4 °F 75% 29.45 in 10.0 mi WSW 18.4 mph - N/A   Overcast